Showing default

FFLY-3, 65319

Orbit data source: Space-Track

FFLY-3, 65319 is a payload satellite owned by Pixxel (US) in SSO that was launched on Tue, 26 Aug 2025 UTC via an FALCON 9 launch vehicle from the Air Force Western Test Range (AFWTR). Payload-class satellites include a variety of spacecraft equipped with specific instruments for various scientific and technological missions. These include communications satellites like Starlink; space stations such as the ISS; scientific satellites like the Hubble; Earth observation satellites from companies like Planet Labs, Umbra, and HawkEye 360; GPS; miniature CubeSats for education and research; and military/defense satellites.

Loading next visibility...
Identifier
65319, 2025-188E
Orbit
SSO
Country
Flag of USUS
Related business
Manufacturer
Pixxel
Mission
Operational Commercial Imaging
Bus & Motor
FIREFLY, Unknown motor
Mass
60 kg wet, 60 kg dry
Launch date (UTC)
2025-08-26 (10 months ago)
Launch vehicle
FALCON 9
Launch site
Air Force Western Test Range (AFWTR)
Object type
Payload
Rocket body
Debris
Shape & HBR
Box + 2 Pan, 14.5 m
Radar Cross Section
0.338 m², Medium (>0.1 m² and < 1m²)

Expand to show TLE details & history
Last TLE update: 9 hours ago

TLE from 9 hours ago
0 FFLY-3
1 65319U 25188E   26171.48071263  .00001108  00000-0  11256-3 0  9994
2 65319  97.7326 246.5463 0009806  93.6555 266.5786 14.92767112 44408
Epoch: 2026-06-20T11:32Z
TLE epoch observation values (Epoch: 2026-06-20T11:32:13.571Z)
Latitude
-0°
Longitude
164.79503°
Altitude
592.77 km
Speed
7.563 km/s
True Right ascension
16h 26m 11s
True Declination
0° 00' 00"
Sunlit
Object was in full shadow at epoch
Visualization orbit readout
Latitude
Unknown
Longitude
Unknown
Altitude
Unknown
Speed
Unknown
Apparent Right ascension
Unknown
Apparent Declination
Unknown
Sunlit
N/A
Visualization observer readout
Local Sidereal Time
07:21:58
Azimuth
Unknown
Elevation
Unknown
Doppler factor
Unknown
Orbital elements
Apogee altitude
593.158 km
Perigee altitude
579.499 km
Semi-major axis
6,964.465 km
Eccentricity
0.00098
Inclination
97.7326°
RAAN
246.5463°
Arg. of periapsis
93.6555°
True anomaly
266.46644°
Mean anomaly
266.5786°
Eccentric anomaly
266.52252°
Mean motion
3.73432 °/min
Orbital period
96.4 mins
BSTAR
0.00011256
Loading maneuver chart data...
Computing Atmospheric mass density...
Loading historical data...
Loading historical data...
Loading historical data...
Loading historical data...
Loading historical data...
Loading historical data...
Loading historical data...

Documentation

Showing up to 5 results
|